N939DJ KJAX-KMIA

Flight info

Callsign N939DJ
Flight time N/A
Altitude 29000
Route EXBOX2 EXBOX PRMUS/N0412F280 DEBRL CSTAL3
Aircraft HDJT/L-SABDGRWY/H

Departure

Time 2026-05-04 18:58
Airport Jacksonville International Airport (KJAX)

Arrival

Time N/A
Airport Miami International Airport (KMIA)
Time Latitude Longitude Altitude Speed Heading
2026-05-04 18:58 30.55882 -81.48134 3128 ft 232 kts 118°
2026-05-04 18:58 30.54946 -81.46669 3050 ft 219 kts 132°
2026-05-04 18:58 30.53734 -81.45568 3048 ft 234 kts 148°
2026-05-04 18:59 30.52143 -81.44814 3086 ft 259 kts 160°
2026-05-04 18:59 30.50509 -81.44103 3377 ft 247 kts 153°
2026-05-04 18:59 30.48978 -81.43153 3662 ft 254 kts 149°
2026-05-04 18:59 30.47367 -81.42273 3934 ft 256 kts 157°
2026-05-04 19:00 30.45736 -81.41500 4231 ft 252 kts 152°
2026-05-04 19:00 30.44170 -81.40546 4643 ft 259 kts 152°
2026-05-04 19:00 30.42562 -81.39637 4962 ft 263 kts 153°
2026-05-04 19:00 30.40920 -81.38736 5283 ft 262 kts 154°
2026-05-04 19:01 30.39227 -81.37834 5619 ft 268 kts 155°
2026-05-04 19:01 30.37532 -81.36922 6292 ft 273 kts 155°
2026-05-04 19:01 30.35768 -81.35960 6954 ft 283 kts 156°
2026-05-04 19:01 30.33989 -81.34999 7603 ft 283 kts 156°
2026-05-04 19:02 30.32202 -81.34037 8258 ft 289 kts 156°
2026-05-04 19:02 30.30374 -81.33048 8935 ft 290 kts 156°
2026-05-04 19:02 30.28532 -81.32050 9625 ft 294 kts 157°
2026-05-04 19:02 30.26665 -81.31042 10294 ft 298 kts 156°
2026-05-04 19:03 30.24780 -81.30028 10924 ft 307 kts 158°
2026-05-04 19:03 30.22814 -81.28963 11577 ft 315 kts 156°
2026-05-04 19:03 30.20807 -81.27878 12242 ft 321 kts 157°
2026-05-04 19:03 30.18760 -81.26777 12922 ft 326 kts 157°
2026-05-04 19:04 30.16716 -81.25670 13613 ft 330 kts 157°
2026-05-04 19:04 30.14622 -81.24544 14275 ft 333 kts 158°
2026-05-04 19:04 30.12511 -81.23409 14886 ft 336 kts 158°
2026-05-04 19:04 30.10333 -81.22234 14964 ft 353 kts 158°
2026-05-04 19:05 30.08116 -81.21038 14963 ft 347 kts 158°
2026-05-04 19:05 30.05931 -81.19860 14963 ft 346 kts 158°
2026-05-04 19:05 30.03706 -81.18827 14967 ft 343 kts 167°
2026-05-04 19:05 30.01364 -81.18391 14967 ft 340 kts 178°
2026-05-04 19:06 29.99027 -81.18178 14973 ft 340 kts 178°
2026-05-04 19:06 29.96667 -81.17922 14978 ft 340 kts 177°
2026-05-04 19:06 29.94303 -81.17656 14975 ft 339 kts 178°
2026-05-04 19:06 29.91946 -81.17420 14973 ft 340 kts 178°
2026-05-04 19:07 29.89617 -81.17126 15062 ft 344 kts 172°
2026-05-04 19:07 29.87332 -81.16253 15525 ft 347 kts 159°
2026-05-04 19:07 29.85216 -81.14868 16104 ft 352 kts 148°
2026-05-04 19:07 29.83104 -81.13432 16607 ft 352 kts 161°
2026-05-04 19:08 29.80769 -81.12599 17122 ft 350 kts 171°
2026-05-04 19:08 29.78390 -81.12317 17621 ft 347 kts 184°
2026-05-04 19:08 29.75968 -81.12403 18122 ft 349 kts 186°
2026-05-04 19:08 29.73528 -81.12447 18571 ft 352 kts 185°
2026-05-04 19:09 29.71089 -81.12470 18972 ft 353 kts 185°
2026-05-04 19:09 29.68624 -81.12537 19363 ft 355 kts 186°